GW5255 Weather Reports


time (UTC)temp
F
wind
direction
speed
knots
gust
knots
rain 1hr
in
rain 24hr
in
rain mn
in
humidity
%
barometer
mb
20260903102118 71 93 0.0 0.0 0.00 0.00 0.00 99 1020.0
20260903101612 71 93 0.0 0.0 0.00 0.00 0.00 99 1019.9
20260903101108 71 93 0.0 0.0 0.00 0.00 0.00 99 1019.9
20260903100608 71 93 0.0 0.0 0.00 0.00 0.00 99 1019.9
20260903100108 71 93 0.0 0.9 0.00 0.00 0.00 99 1019.9
20260903095605 71 93 0.9 0.9 0.00 0.00 0.00 99 1019.8
20260903095105 71 93 0.0 0.0 0.00 0.00 0.00 99 1019.9
20260903094600 71 93 0.0 0.0 0.00 0.00 0.00 99 1020.0
20260903094101 71 93 0.0 0.0 0.00 0.00 0.00 99 1020.0
20260903093556 71 93 0.0 0.9 0.00 0.00 0.00 99 1019.9
20260903093052 71 93 0.0 0.0 0.00 0.00 0.00 99 1019.9
20260903092550 70 93 0.0 0.0 0.00 0.00 0.00 99 1020.0
20260903092045 71 93 0.0 0.0 0.00 0.00 0.00 99 1020.0
20260903091543 71 93 0.0 0.0 0.00 0.00 0.00 99 1019.9
20260903091038 71 93 0.0 0.9 0.00 0.00 0.00 99 1019.8
20260903090535 71 93 0.9 0.9 0.00 0.00 0.00 99 1019.8
20260903090033 71 93 0.0 1.7 0.00 0.00 0.00 99 1020.0
20260903085531 71 93 0.0 0.0 0.00 0.00 0.00 99 1019.7
20260903085027 71 93 0.0 0.0 0.00 0.00 0.00 99 1019.9
20260903084525 71 93 0.0 0.0 0.00 0.00 0.00 99 1019.9
20260903084020 71 93 0.0 0.9 0.00 0.00 0.00 99 1019.8
20260903083516 71 93 0.9 0.9 0.00 0.00 0.00 99 1019.8
20260903083016 71 92 0.0 1.7 0.00 0.00 0.00 99 1019.6
20260903082510 71 92 0.0 0.9 0.00 0.00 0.00 99 1019.7
20260903082006 71 92 0.0 0.0 0.00 0.00 0.00 99 1019.9
20260903081501 71 92 0.0 0.0 0.00 0.00 0.00 99 1019.8
20260903080958 71 92 0.0 0.0 0.00 0.00 0.00 99 1019.7
20260903080453 72 92 0.0 0.0 0.00 0.00 0.00 99 1019.8
20260903075949 72 92 0.0 0.0 0.00 0.00 0.00 99 1019.6
20260903075444 72 92 0.0 0.0 0.00 0.00 0.00 99 1019.8
20260903074939 72 92 0.0 0.0 0.00 0.00 0.00 99 1019.9
20260903074438 72 92 0.0 0.0 0.00 0.00 0.00 99 1019.8
20260903073933 71 92 0.0 0.0 0.00 0.00 0.00 99 1019.7
20260903073428 72 92 0.0 0.0 0.00 0.00 0.00 99 1019.7
20260903072924 72 92 0.0 0.0 0.00 0.00 0.00 99 1019.7
20260903072420 71 92 0.0 0.0 0.00 0.00 0.00 99 1019.6
20260903071917 72 92 0.0 0.0 0.00 0.00 0.00 99 1019.6
20260903071413 72 92 0.0 0.0 0.00 0.00 0.00 99 1019.6
20260903070908 72 92 0.0 0.0 0.00 0.00 0.00 99 1019.5
20260903070402 72 92 0.0 0.0 0.00 0.00 0.00 99 1019.5
20260903065857 72 92 0.0 0.0 0.00 0.00 0.00 99 1019.8
20260903065357 72 92 0.0 0.0 0.00 0.00 0.00 99 1019.7
20260903064856 72 92 0.0 0.0 0.00 0.00 0.00 99 1019.8
20260903064352 72 92 0.0 0.0 0.00 0.00 0.00 99 1019.8
20260903063848 72 92 0.0 0.0 0.00 0.00 0.00 99 1019.7
20260903063342 72 92 0.0 0.0 0.00 0.00 0.00 99 1019.8
20260903062833 72 93 0.0 0.0 0.00 0.00 0.00 99 1019.7
20260903062332 72 92 0.0 0.0 0.00 0.00 0.00 99 1019.6
20260903061829 73 93 0.0 0.0 0.00 0.00 0.00 99 1019.6
20260903061327 72 92 0.0 0.0 0.00 0.00 0.00 99 1019.7
20260903060824 72 92 0.0 0.0 0.00 0.00 0.00 99 1019.8
20260903060322 72 91 0.0 0.0 0.00 0.00 0.00 99 1019.7
20260903055821 73 91 0.0 0.9 0.00 0.00 0.00 99 1019.8
20260903055319 73 91 1.7 1.7 0.00 0.00 0.00 99 1019.4
20260903054814 73 91 0.9 1.7 0.00 0.00 0.00 99 1019.6
20260903054314 73 91 0.9 1.7 0.00 0.00 0.00 99 1019.6
20260903053812 73 92 0.0 0.0 0.00 0.00 0.00 99 1019.6
20260903053312 73 91 0.0 0.0 0.00 0.00 0.00 99 1019.5
20260903052807 73 92 0.0 0.0 0.00 0.00 0.00 99 1019.6
20260903052306 73 92 0.0 0.0 0.00 0.00 0.00 99 1019.6
20260903051758 73 92 0.0 0.0 0.00 0.00 0.00 99 1019.7
20260903051253 73 92 0.0 0.0 0.00 0.00 0.00 99 1019.7
20260903050749 73 92 0.0 0.0 0.00 0.00 0.00 99 1019.6
20260903050248 73 92 0.0 0.0 0.00 0.00 0.00 99 1019.7
20260903045743 73 92 0.0 0.0 0.00 0.00 0.00 99 1019.7
20260903045238 73 92 0.0 0.0 0.00 0.00 0.00 99 1019.7
20260903044735 73 92 0.0 0.0 0.00 0.00 0.00 99 1019.7
20260903044230 73 92 0.0 0.9 0.00 0.00 0.00 99 1019.5
20260903043727 73 92 0.9 1.7 0.00 0.00 0.00 99 1019.5
20260903043226 73 92 0.9 1.7 0.00 0.00 0.00 99 1019.4
20260903042725 73 92 0.9 0.9 0.00 0.00 0.00 99 1019.4
20260903042220 73 92 0.0 0.9 0.00 0.00 0.00 99 1019.6
20260903041717 73 92 0.9 0.9 0.00 0.00 0.00 99 1019.5
20260903041213 74 92 0.0 0.9 0.00 0.00 0.00 99 1019.4
20260903040712 74 92 0.9 1.7 0.00 0.00 0.00 99 1019.5
20260903040208 74 91 0.9 1.7 0.00 0.00 0.00 99 1019.5
20260903035703 74 83 0.0 0.0 0.00 0.00 0.00 99 1019.7
20260903035159 74 83 0.0 0.0 0.00 0.00 0.00 99 1019.4
20260903034659 74 83 0.0 0.0 0.00 0.00 0.00 99 1019.5
20260903034154 74 89 0.9 0.9 0.00 0.00 0.00 99 1019.5
20260903033649 74 92 0.0 0.0 0.00 0.00 0.00 99 1019.5
20260903033149 74 92 0.0 0.0 0.00 0.00 0.00 99 1019.6
20260903032644 74 92 0.0 0.0 0.00 0.00 0.00 99 1019.6
20260903032141 75 92 0.0 0.0 0.00 0.00 0.00 99 1019.6
20260903031636 74 92 0.0 0.0 0.00 0.00 0.00 99 1019.8
20260903031136 74 92 0.0 0.0 0.00 0.00 0.00 99 1019.7
20260903030631 75 92 0.0 0.0 0.00 0.00 0.00 99 1019.9
20260903030128 75 92 0.0 0.0 0.00 0.00 0.00 99 1019.9
20260903025627 75 92 0.0 0.0 0.00 0.00 0.00 99 1019.8
20260903025123 75 92 0.0 0.0 0.00 0.00 0.00 99 1019.8
20260903024618 75 92 0.0 0.0 0.00 0.00 0.00 99 1019.8
20260903024112 75 92 0.0 0.0 0.00 0.00 0.00 99 1019.8
20260903023609 75 92 0.0 0.0 0.00 0.00 0.00 99 1019.7
20260903023109 75 92 0.0 0.0 0.00 0.00 0.00 99 1019.8
20260903022609 75 92 0.0 0.0 0.00 0.00 0.00 99 1019.6
20260903022108 75 93 0.0 0.0 0.00 0.00 0.00 99 1019.7
20260903021602 75 93 0.0 0.0 0.00 0.00 0.00 99 1019.6
20260903021102 75 93 0.0 0.0 0.00 0.00 0.00 99 1019.8
20260903020558 76 93 0.0 0.0 0.00 0.00 0.00 99 1019.8
20260903020058 76 93 0.0 0.0 0.00 0.00 0.00 99 1019.8
20260903015554 76 93 0.0 0.0 0.00 0.00 0.00 99 1019.7
20260903015049 76 93 0.0 0.0 0.00 0.00 0.00 99 1019.7
20260903014548 76 93 0.0 0.0 0.00 0.00 0.00 99 1019.6
20260903014038 76 93 0.0 0.0 0.00 0.00 0.00 99 1019.6
20260903013537 76 93 0.0 0.0 0.00 0.00 0.00 99 1019.7
20260903013032 76 93 0.0 0.0 0.00 0.00 0.00 99 1019.8
20260903012531 76 93 0.0 0.0 0.00 0.00 0.00 99 1019.6
20260903012030 77 93 0.0 0.0 0.00 0.00 0.00 98 1019.5
20260903011530 77 93 0.0 0.0 0.00 0.00 0.00 98 1019.5
20260903011025 77 93 0.0 0.0 0.00 0.00 0.00 99 1019.3
20260903010521 77 93 0.0 0.0 0.00 0.00 0.00 98 1019.4
20260903010020 77 93 0.0 0.0 0.00 0.00 0.00 98 1019.2
20260903005520 77 93 0.0 0.0 0.00 0.00 0.00 98 1019.3
20260903005015 77 93 0.0 0.0 0.00 0.00 0.00 97 1019.0
20260903004509 78 93 0.0 0.0 0.00 0.00 0.00 97 1019.1
20260903004005 78 94 0.0 0.0 0.00 0.00 0.00 97 1019.2
20260903003500 78 94 0.0 0.0 0.00 0.00 0.00 96 1019.0
20260903002955 78 94 0.0 0.0 0.00 0.00 0.00 96 1018.8
20260903002455 78 94 0.9 1.7 0.00 0.00 0.00 95 1019.1
20260903001954 79 94 0.9 0.9 0.00 0.00 0.00 95 1019.0
20260903001450 79 94 0.0 0.0 0.00 0.00 0.00 94 1019.0
20260903000950 79 94 0.0 0.0 0.00 0.00 0.00 93 1018.9
20260903000447 80 94 0.0 0.0 0.00 0.00 0.00 92 1018.7
20260902235943 80 94 0.0 0.0 0.00 0.00 0.00 91 1019.0
20260902235438 81 98 0.0 0.0 0.00 0.00 0.00 90 1018.8
20260902234938 81 153 0.0 0.0 0.00 0.00 0.00 89 1018.7
20260902234433 82 153 0.0 0.0 0.00 0.00 0.00 87 1018.8
20260902233932 82 154 0.0 0.0 0.00 0.00 0.00 87 1018.8
20260902233426 82 154 0.0 0.0 0.00 0.00 0.00 86 1018.8
20260902232926 83 196 0.0 0.0 0.00 0.00 0.00 84 1018.9
20260902232421 83 196 0.0 0.0 0.00 0.00 0.00 84 1018.9
20260902231920 84 196 0.0 0.0 0.00 0.00 0.00 84 1019.0
20260902231415 84 197 0.0 0.0 0.00 0.00 0.00 83 1018.9
20260902230910 84 197 0.0 0.9 0.00 0.00 0.00 82 1019.0
20260902230410 85 197 0.0 0.9 0.00 0.00 0.00 80 1019.1
20260902225910 86 197 0.0 0.9 0.00 0.00 0.00 78 1019.1
20260902225405 87 197 0.0 0.0 0.00 0.00 0.00 75 1019.0
20260902224903 87 197 0.0 0.0 0.00 0.00 0.00 74 1019.1
20260902224358 87 198 0.0 0.0 0.00 0.00 0.00 73 1018.9
20260902223855 88 199 0.0 0.0 0.00 0.00 0.00 73 1019.1
20260902223354 88 200 0.9 1.7 0.00 0.00 0.00 72 1018.9
20260902222849 88 200 0.0 0.0 0.00 0.00 0.00 70 1019.1
20260902222347 88 200 0.0 0.0 0.00 0.00 0.00 72 1019.0
20260902221842 88 201 0.0 0.9 0.00 0.00 0.00 71 1019.1
20260902221341 89 201 1.7 1.7 0.00 0.00 0.00 71 1019.1
20260902220837 89 203 0.9 1.7 0.00 0.00 0.00 69 1019.0
20260902220336 89 210 0.0 0.9 0.00 0.00 0.00 68 1019.1
20260902215832 89 195 0.0 0.9 0.00 0.00 0.00 71 1019.0
20260902215332 90 211 1.7 1.7 0.00 0.00 0.00 69 1019.1
20260902214829 90 203 0.9 0.9 0.00 0.00 0.00 67 1019.2
20260902214327 91 213 0.0 0.9 0.00 0.00 0.00 69 1019.1
20260902213823 91 66 0.0 1.7 0.00 0.00 0.00 67 1019.1
20260902213318 92 206 1.7 1.7 0.00 0.00 0.00 66 1019.1
20260902212816 91 249 0.9 1.7 0.00 0.00 0.00 64 1019.1
20260902212314 92 199 0.0 0.9 0.00 0.00 0.00 69 1019.0
20260902211810 92 197 0.9 2.6 0.00 0.00 0.00 63 1019.3
20260902211306 93 204 0.9 1.7 0.00 0.00 0.00 67 1019.2
20260902210806 93 198 0.0 1.7 0.00 0.00 0.00 66 1019.4
20260902210300 92 66 0.0 0.9 0.00 0.00 0.00 64 1019.3
20260902205758 93 344 0.9 0.9 0.00 0.00 0.00 54 1019.3
20260902205254 93 199 0.0 0.9 0.00 0.00 0.00 60 1019.3
20260902204749 94 69 0.0 0.9 0.00 0.00 0.00 55 1019.2
20260902204244 95 312 0.9 1.7 0.00 0.00 0.00 57 1019.4
20260902203744 94 223 2.6 3.5 0.00 0.00 0.00 55 1019.5
20260902203239 95 255 0.9 0.9 0.00 0.00 0.00 56 1019.6
20260902202734 94 209 0.9 1.7 0.00 0.00 0.00 65 1019.7
20260902202231 94 265 1.7 3.5 0.00 0.00 0.00 55 1019.8
20260902201727 94 333 1.7 3.5 0.00 0.00 0.00 54 1019.8
20260902201226 95 140 0.9 1.7 0.00 0.00 0.00 51 1020.0
20260902200721 94 63 1.7 2.6 0.00 0.00 0.00 50 1019.9
20260902200217 94 194 0.9 2.6 0.00 0.00 0.00 58 1020.0
20260902195712 95 235 3.5 3.5 0.00 0.00 0.00 52 1019.8
20260902195211 94 158 0.0 1.7 0.00 0.00 0.00 54 1020.1
20260902194710 94 22 1.7 3.5 0.00 0.00 0.00 52 1020.1
20260902194205 94 16 0.9 2.6 0.00 0.00 0.00 53 1020.1
20260902193701 95 24 2.6 3.5 0.00 0.00 0.00 53 1020.0
20260902193156 94 212 0.0 1.7 0.00 0.00 0.00 53 1020.3
20260902192655 94 308 0.9 3.5 0.00 0.00 0.00 54 1020.1
20260902192154 94 17 0.9 3.5 0.00 0.00 0.00 57 1020.2
20260902191649 93 310 0.9 6.1 0.00 0.00 0.00 54 1020.2
20260902191149 93 338 2.6 2.6 0.00 0.00 0.00 56 1020.2
20260902190644 93 251 0.0 0.9 0.00 0.00 0.00 58 1020.3
20260902190139 93 71 1.7 1.7 0.00 0.00 0.00 62 1020.3
20260902185635 93 39 1.7 1.7 0.00 0.00 0.00 59 1020.3
20260902185131 91 216 0.9 1.7 0.00 0.00 0.00 65 1020.3
20260902184626 92 12 0.0 3.5 0.00 0.00 0.00 58 1020.4
20260902184121 93 336 4.3 7.8 0.00 0.00 0.00 54 1020.5
20260902183618 93 229 0.9 1.7 0.00 0.00 0.00 55 1020.5
20260902183114 93 132 0.9 2.6 0.00 0.00 0.00 56 1020.5
20260902182609 92 31 0.0 1.7 0.00 0.00 0.00 57 1020.5
20260902182106 92 27 1.7 2.6 0.00 0.00 0.00 56 1020.7
20260902181602 92 14 2.6 5.2 0.00 0.00 0.00 58 1020.7
20260902181056 92 68 0.0 2.6 0.00 0.00 0.00 63 1020.8
20260902180555 92 26 0.9 1.7 0.00 0.00 0.00 57 1020.6
20260902180052 92 30 0.9 1.7 0.00 0.00 0.00 58 1020.9
20260902175551 92 40 1.7 2.6 0.00 0.00 0.00 59 1020.8
20260902175047 91 247 0.0 0.0 0.00 0.00 0.00 61 1021.0
20260902174543 92 39 0.0 0.9 0.00 0.00 0.00 59 1021.1
20260902174038 92 287 4.3 6.1 0.00 0.00 0.00 59 1021.1
20260902173538 90 174 0.9 3.5 0.00 0.00 0.00 60 1021.2
20260902173033 92 209 1.7 2.6 0.00 0.00 0.00 63 1021.1
20260902172533 92 128 3.5 5.2 0.00 0.00 0.00 64 1021.2
20260902172028 92 318 1.7 2.6 0.00 0.00 0.00 67 1021.5
20260902171524 91 256 0.9 2.6 0.00 0.00 0.00 64 1021.4
20260902171020 91 55 0.9 2.6 0.00 0.00 0.00 62 1021.6
20260902170520 91 22 0.0 6.1 0.00 0.00 0.00 62 1021.6
20260902170016 91 180 4.3 6.1 0.00 0.00 0.00 61 1021.6
20260902165516 91 15 1.7 2.6 0.00 0.00 0.00 64 1021.9
20260902165016 92 244 0.0 1.7 0.00 0.00 0.00 63 1021.8
20260902164511 92 75 0.9 1.7 0.00 0.00 0.00 66 1021.7
20260902164010 91 124 0.9 3.5 0.00 0.00 0.00 64 1021.9
20260902163506 91 33 0.9 3.5 0.00 0.00 0.00 65 1022.1
20260902163003 91 68 0.0 0.9 0.00 0.00 0.00 69 1022.2
20260902162458 90 314 0.9 2.6 0.00 0.00 0.00 66 1022.1
20260902161959 90 19 0.9 2.6 0.00 0.00 0.00 68 1022.2
20260902161454 91 58 1.7 2.6 0.00 0.00 0.00 65 1022.1
20260902160949 90 113 2.6 2.6 0.00 0.00 0.00 68 1022.4
20260902160445 90 117 0.0 2.6 0.00 0.00 0.00 65 1022.4
20260902155943 89 85 0.9 1.7 0.00 0.00 0.00 71 1022.4
20260902155439 88 100 0.9 5.2 0.00 0.00 0.00 73 1022.5
20260902154932 89 105 1.7 2.6 0.00 0.00 0.00 70 1022.3
20260902154428 89 76 0.9 2.6 0.00 0.00 0.00 71 1022.4
20260902153927 89 18 0.0 1.7 0.00 0.00 0.00 72 1022.4
20260902153426 89 88 0.0 0.9 0.00 0.00 0.00 71 1022.3
20260902152922 88 138 1.7 5.2 0.00 0.00 0.00 74 1022.4
20260902152418 88 51 0.9 2.6 0.00 0.00 0.00 70 1022.7
20260902151913 87 34 1.7 1.7 0.00 0.00 0.00 76 1022.4
20260902151409 89 287 0.9 0.9 0.00 0.00 0.00 71 1022.3
20260902150908 88 102 0.9 1.7 0.00 0.00 0.00 73 1022.4
20260902150405 88 171 0.9 1.7 0.00 0.00 0.00 74 1022.3
20260902145904 87 97 0.0 0.9 0.00 0.00 0.00 74 1022.3
20260902145400 86 131 0.9 2.6 0.00 0.00 0.00 80 1022.1
20260902144854 85 109 0.9 1.7 0.00 0.00 0.00 78 1022.3
20260902144351 85 113 1.7 1.7 0.00 0.00 0.00 79 1022.1
20260902143844 84 107 0.9 2.6 0.00 0.00 0.00 80 1022.0
20260902143339 83 113 1.7 3.5 0.00 0.00 0.00 81 1022.2
20260902142835 83 127 2.6 2.6 0.00 0.00 0.00 82 1022.2
20260902142331 83 135 0.0 1.7 0.00 0.00 0.00 85 1022.2
20260902141826 82 129 1.7 1.7 0.00 0.00 0.00 85 1022.0
20260902141322 82 126 0.9 2.6 0.00 0.00 0.00 84 1022.1
20260902140821 80 105 0.9 1.7 0.00 0.00 0.00 87 1022.1
20260902140316 80 93 0.0 1.7 0.00 0.00 0.00 88 1022.3
20260902135815 79 99 1.7 2.6 0.00 0.00 0.00 87 1022.1
20260902135312 79 228 0.9 1.7 0.00 0.00 0.00 89 1022.0
20260902134810 78 114 1.7 1.7 0.00 0.00 0.00 88 1022.0
20260902134306 78 237 0.0 1.7 0.00 0.00 0.00 89 1022.1
20260902133802 77 9 0.0 0.9 0.00 0.00 0.00 90 1022.1
20260902133301 77 155 0.9 2.6 0.00 0.00 0.00 91 1021.9
20260902132756 76 146 1.7 2.6 0.00 0.00 0.00 91 1022.1
20260902132252 76 158 0.0 2.6 0.00 0.00 0.00 92 1022.1
20260902131747 74 247 0.0 3.5 0.00 0.00 0.00 95 1022.1
20260902131243 73 193 0.9 2.6 0.00 0.00 0.00 97 1022.0
20260902130743 72 127 1.7 2.6 0.00 0.00 0.00 99 1021.9
20260902130239 72 185 0.0 0.0 0.00 0.00 0.00 99 1021.9
20260902125734 72 229 0.9 1.7 0.00 0.00 0.00 99 1022.0
20260902125230 72 86 0.0 0.0 0.00 0.00 0.00 99 1021.9
20260902124726 72 86 0.0 0.0 0.00 0.00 0.00 99 1022.0
20260902124221 71 86 0.0 0.0 0.00 0.00 0.00 99 1022.0
20260902123716 71 86 0.0 0.0 0.00 0.00 0.00 99 1021.9
20260902123213 71 88 0.0 0.9 0.00 0.00 0.00 99 1022.0
20260902122711 70 87 0.0 0.9 0.00 0.00 0.00 99 1021.8
20260902122207 70 73 0.0 0.0 0.00 0.00 0.00 99 1022.1
20260902121702 70 88 0.0 0.0 0.00 0.00 0.00 99 1021.9
20260902121202 69 91 0.0 0.0 0.00 0.00 0.00 99 1022.1
20260902120658 69 91 0.0 0.9 0.00 0.00 0.00 99 1021.8
20260902120155 69 91 0.9 0.9 0.00 0.00 0.00 99 1021.9
20260902115654 69 91 0.0 0.9 0.00 0.00 0.00 99 1021.8
20260902115150 69 91 0.9 1.7 0.00 0.00 0.00 99 1021.9
20260902114646 68 91 0.9 1.7 0.00 0.00 0.00 99 1021.8
20260902114141 68 88 0.0 0.9 0.00 0.00 0.00 99 1021.6
20260902113637 68 86 0.0 0.9 0.00 0.00 0.00 99 1021.6
20260902113131 68 86 0.0 1.7 0.00 0.00 0.00 99 1021.5
20260902112626 68 87 0.0 1.7 0.00 0.00 0.00 99 1021.4
20260902112124 68 88 0.9 1.7 0.00 0.00 0.00 99 1021.5
20260902111619 68 86 0.9 1.7 0.00 0.00 0.00 99 1021.5
20260902111115 68 89 0.9 1.7 0.00 0.00 0.00 99 1021.6
20260902110611 68 76 0.9 1.7 0.00 0.00 0.00 99 1021.3
20260902110107 68 80 0.9 0.9 0.00 0.00 0.00 99 1021.5
20260902105601 68 94 0.0 0.0 0.00 0.00 0.00 99 1021.7
20260902105100 68 94 0.0 0.0 0.00 0.00 0.00 99 1021.5
20260902104556 68 94 0.9 1.7 0.00 0.00 0.00 99 1021.7
20260902104051 69 81 0.0 0.0 0.00 0.00 0.00 99 1021.5
20260902103546 69 80 0.0 0.9 0.00 0.00 0.00 99 1021.5
20260902103041 69 95 1.7 1.7 0.00 0.00 0.00 99 1021.4